Tracking 19377 objects as of 11-Dec-2018
HD Live streaming from Space Station
objects crossing your sky now

H-2A DEB

Track H-2A DEB now!
10-day predictions


NORAD ID: 43673
Int'l Code: 2018-084C
Perigee: 601.2 km
Apogee: 624.6 km
Inclination: 97.8 °
Period: 96.8 minutes
Semi major axis: 6983 km
RCS: Unknown
Launch date: October 29, 2018
Source: Japan (JPN)
Launch site: TANEGASHIMA SPACE CENTER (TNSTA)

Note: This is SATELLITE DEBRIS
aabbcc
Your satellite tracking list
Your tracking list is empty




NASA's NSSDC Master Catalog

Two Line Element Set (TLE):
1 43673U 18084C   18343.92492208 +.00000641 +00000-0 +76647-4 0  9994
2 43673 097.8458 093.9935 0016804 149.0510 211.1699 14.87496792006195
Source of the keplerian elements: AFSPC